EW6336 Weather Reports


Display with metric or nautical units.
time (UTC)temp
F
wind
direction
speed
MPH
gust
MPH
rain 1hr
in
rain 24hr
in
rain mn
in
humidity
%
barometer
mb
20260507032244 63 315 1.0 2.0 0.00 0.00 0.00 78 1009.4
20260507031304 63 315 1.0 2.0 0.00 0.00 0.00 78 1009.4
20260507030243 63 315 1.0 2.0 0.00 0.00 0.00 78 1009.4
20260507025244 64 315 1.0 3.0 0.00 0.00 0.00 78 1009.5
20260507024243 64 113 1.0 3.0 0.00 0.00 0.00 78 1009.4
20260507023244 64 135 3.0 6.0 0.00 0.00 0.00 78 1009.4
20260507022243 64 180 2.0 7.0 0.00 0.00 0.00 76 1009.5
20260507021243 65 203 3.0 7.0 0.00 0.00 0.00 75 1009.4
20260507020244 64 113 2.0 4.0 0.00 0.00 0.00 74 1009.4
20260507015243 65 113 1.0 3.0 0.00 0.00 0.00 75 1009.4
20260507014243 65 135 2.0 4.0 0.00 0.00 0.00 75 1009.6
20260507013323 65 113 3.0 6.0 0.00 0.00 0.00 75 1009.7
20260507012243 65 113 2.0 4.0 0.00 0.00 0.00 74 1009.8
20260507011404 65 113 3.0 6.0 0.00 0.00 0.00 74 1009.8
20260507010243 65 135 3.0 7.0 0.00 0.00 0.00 72 1010.0
20260507005243 66 113 5.0 9.0 0.00 0.00 0.00 71 1010.1
20260507004243 66 90 4.0 8.0 0.00 0.00 0.00 70 1010.0
20260507003243 66 113 4.0 7.0 0.00 0.00 0.00 70 1009.9
20260507002243 66 135 2.0 4.0 0.00 0.00 0.00 69 1009.8
20260507001243 66 0.0 1.0 0.00 0.00 0.00 70 1010.0
20260507000243 66 135 2.0 4.0 0.00 0.00 0.00 71 1010.1
20260506235242 66 135 2.0 4.0 0.00 0.00 0.00 71 1010.1
20260506234242 66 135 1.0 3.0 0.00 0.00 0.00 71 1010.1
20260506233303 66 135 2.0 3.0 0.00 0.00 0.00 72 1010.1
20260506232306 66 90 1.0 3.0 0.00 0.00 0.00 71 1010.2
20260506231242 66 45 1.0 2.0 0.00 0.00 0.00 71 1010.4
20260506230242 65 45 2.0 4.0 0.00 0.00 0.00 71 1010.4
20260506225242 65 0.0 2.0 0.00 0.00 0.00 72 1010.3
20260506224242 65 0.0 0.0 0.00 0.00 0.00 72 1010.4
20260506223242 65 0.0 0.0 0.00 0.00 0.00 73 1010.6
20260506222242 65 0.0 2.0 0.00 0.00 0.00 73 1010.6
20260506221242 66 90 2.0 3.0 0.00 0.00 0.00 73 1010.7
20260506220242 66 90 2.0 3.0 0.00 0.00 0.00 72 1010.8
20260506215242 66 45 1.0 3.0 0.00 0.00 0.00 72 1010.8
20260506214242 66 0.0 2.0 0.00 0.00 0.00 72 1011.0
20260506213244 66 68 1.0 2.0 0.00 0.00 0.00 73 1010.9
20260506212244 66 113 2.0 6.0 0.00 0.00 0.00 73 1011.0
20260506211244 66 45 1.0 2.0 0.00 0.00 0.00 73 1010.9
20260506210517 66 45 1.0 3.0 0.00 0.00 0.00 74 1010.8
20260506210242 66 90 1.0 4.0 0.00 0.00 0.00 75 1010.7
20260506205537 66 23 2.0 5.0 0.00 0.00 0.00 77 1010.6
20260506204517 66 135 1.0 4.0 0.00 0.00 0.00 77 1010.6
20260506203744 66 135 1.0 2.0 0.00 0.00 0.00 77 1010.6
20260506202744 66 135 1.0 3.0 0.00 0.00 0.00 76 1010.4
20260506201744 66 135 3.0 4.0 0.00 0.00 0.00 76 1010.3
20260506200744 66 113 2.0 4.0 0.00 0.00 0.00 75 1010.2
20260506195744 66 135 1.0 4.0 0.00 0.00 0.00 75 1010.0
20260506194744 67 113 3.0 6.0 0.00 0.00 0.00 74 1009.8
20260506193744 67 113 2.0 4.0 0.00 0.00 0.00 73 1009.8
20260506192744 67 113 2.0 4.0 0.00 0.00 0.00 73 1009.8
20260506191744 67 248 1.0 3.0 0.00 0.00 0.00 73 1009.8
20260506190701 67 248 2.0 4.0 0.00 0.00 0.00 72 1009.7
20260506185744 67 248 1.0 3.0 0.00 0.00 0.00 72 1009.6
20260506184744 67 248 1.0 2.0 0.00 0.00 0.00 72 1009.6
20260506183744 67 180 1.0 3.0 0.00 0.00 0.00 71 1009.6
20260506182744 67 180 1.0 3.0 0.00 0.00 0.00 71 1009.4
20260506181744 67 248 2.0 5.0 0.00 0.00 0.00 71 1009.5
20260506180824 68 180 2.0 5.0 0.00 0.00 0.00 70 1009.6
20260506175744 68 158 3.0 7.0 0.00 0.00 0.00 69 1009.4
20260506174744 69 180 2.0 4.0 0.00 0.00 0.00 69 1009.3
20260506173743 69 158 3.0 5.0 0.00 0.00 0.00 68 1009.3
20260506172744 69 180 2.0 6.0 0.00 0.00 0.00 68 1009.2
20260506171743 69 180 4.0 7.0 0.00 0.00 0.00 67 1009.4
20260506170744 69 180 2.0 5.0 0.00 0.00 0.00 68 1009.3
20260506165744 69 180 2.0 5.0 0.00 0.00 0.00 68 1009.3
20260506165036 69 180 2.0 5.0 0.00 0.00 0.00 69 1009.2
20260506164244 69 225 3.0 5.0 0.00 0.00 0.00 68 1009.1
20260506163303 69 180 3.0 6.0 0.00 0.00 0.00 67 1009.2
20260506162306 69 225 2.0 6.0 0.00 0.00 0.00 69 1009.2
20260506161243 69 203 3.0 6.0 0.00 0.00 0.00 69 1009.2
20260506160243 68 248 3.0 7.0 0.00 0.00 0.00 70 1009.3
20260506155324 68 225 3.0 9.0 0.00 0.00 0.00 70 1009.5
20260506154244 68 180 2.0 5.0 0.00 0.00 0.00 70 1009.5
20260506153243 68 180 3.0 7.0 0.00 0.00 0.00 70 1009.4
20260506152243 68 203 4.0 9.0 0.00 0.00 0.00 70 1009.6
20260506151324 68 225 5.0 10.0 0.00 0.00 0.00 70 1009.6
20260506150244 68 248 4.0 8.0 0.00 0.00 0.00 70 1009.8
20260506145243 68 248 4.0 9.0 0.00 0.00 0.00 70 1009.8
20260506144243 68 225 5.0 10.0 0.00 0.00 0.00 70 1009.9
20260506143243 69 225 5.0 10.0 0.00 0.00 0.00 69 1010.0
20260506142243 69 225 5.0 10.0 0.00 0.00 0.00 68 1010.1
20260506141243 69 203 6.0 11.0 0.00 0.00 0.00 69 1010.2
20260506140243 70 248 5.0 9.0 0.00 0.00 0.00 68 1010.3
20260506135243 69 203 5.0 9.0 0.00 0.00 0.00 70 1010.2
20260506134243 68 203 6.0 12.0 0.00 0.00 0.00 68 1010.3
20260506133243 69 248 5.0 10.0 0.00 0.00 0.00 68 1010.2
20260506132243 69 203 5.0 10.0 0.00 0.00 0.00 67 1010.2
20260506131323 69 180 6.0 11.0 0.00 0.00 0.00 66 1010.2
20260506130303 70 248 4.0 9.0 0.00 0.00 0.00 66 1010.2
20260506125243 69 225 5.0 10.0 0.00 0.00 0.00 67 1010.1
20260506124243 69 225 4.0 8.0 0.00 0.00 0.00 66 1010.2
20260506123243 69 225 5.0 12.0 0.00 0.00 0.00 65 1010.3
20260506122243 69 180 6.0 13.0 0.00 0.00 0.00 65 1010.3
20260506121243 69 180 4.0 9.0 0.00 0.00 0.00 64 1010.5
20260506120243 69 158 5.0 13.0 0.00 0.00 0.00 66 1010.6
20260506115306 70 180 5.0 9.0 0.00 0.00 0.00 65 1010.6
20260506114243 70 203 4.0 10.0 0.00 0.00 0.00 65 1010.5
20260506113303 70 180 5.0 9.0 0.00 0.00 0.00 66 1010.7
20260506112243 70 158 5.0 8.0 0.00 0.00 0.00 66 1010.7
20260506111243 70 225 4.0 8.0 0.00 0.00 0.00 66 1010.8
20260506110303 70 180 3.0 9.0 0.00 0.00 0.00 65 1010.9
20260506105243 69 225 4.0 8.0 0.00 0.00 0.00 65 1010.8
20260506104243 70 248 4.0 8.0 0.00 0.00 0.00 67 1010.8
20260506103303 70 225 3.0 6.0 0.00 0.00 0.00 64 1010.8
20260506102243 69 225 3.0 8.0 0.00 0.00 0.00 65 1010.9
20260506101243 70 270 3.0 6.0 0.00 0.00 0.00 65 1010.8
20260506100243 69 225 3.0 7.0 0.00 0.00 0.00 65 1010.8
20260506095242 69 180 3.0 6.0 0.00 0.00 0.00 64 1010.8
20260506094243 69 158 3.0 5.0 0.00 0.00 0.00 65 1010.7
20260506093242 69 225 4.0 6.0 0.00 0.00 0.00 64 1010.7
20260506092243 69 248 4.0 7.0 0.00 0.00 0.00 64 1010.6
20260506091302 69 180 3.0 8.0 0.00 0.00 0.00 66 1010.5
20260506090243 70 270 4.0 9.0 0.00 0.00 0.00 63 1010.4
20260506085242 70 270 4.0 8.0 0.00 0.00 0.00 59 1010.4
20260506084242 72 248 3.0 6.0 0.00 0.00 0.00 55 1010.3
20260506083302 73 135 2.0 4.0 0.00 0.00 0.00 37 1010.2
20260506082242 74 68 2.0 4.0 0.00 0.00 0.00 36 1010.1
20260506081243 74 68 2.0 5.0 0.00 0.00 0.00 36 1010.1
20260506080242 73 113 1.0 3.0 0.00 0.00 0.00 37 1010.0
20260506073242 70 45 1.0 5.0 0.00 0.00 0.00 44 1009.8
20260506072242 68 203 1.0 2.0 0.00 0.00 0.00 54 1009.9
20260506071242 67 203 2.0 4.0 0.00 0.00 0.00 59 1009.9
20260506070243 67 158 1.0 4.0 0.00 0.00 0.00 57 1010.0
20260506062242 63 68 1.0 3.0 0.00 0.00 0.00 68 1010.1
20260506061302 63 68 1.0 3.0 0.00 0.00 0.00 73 1010.0
20260506060302 62 0.0 2.0 0.00 0.00 0.00 77 1009.9
20260506051304 61 23 1.0 2.0 0.00 0.00 0.00 70 1009.8
20260506050244 61 23 1.0 3.0 0.00 0.00 0.00 68 1009.7
20260506044244 60 45 1.0 2.0 0.00 0.00 0.00 72 1009.3
20260506043244 60 0.0 1.0 0.00 0.00 0.00 72 1009.3
20260506042244 60 45 1.0 4.0 0.00 0.00 0.00 72 1009.3
20260506041244 60 0.0 1.0 0.00 0.00 0.00 73 1009.4
20260506040244 60 338 1.0 3.0 0.00 0.00 0.00 74 1009.4
20260506035306 60 0 1.0 2.0 0.00 0.00 0.00 76 1009.3
20260506034304 61 45 1.0 3.0 0.00 0.00 0.00 77 1009.3
20260506033244 61 45 2.0 5.0 0.00 0.00 0.00 78 1009.3